Location: ????????
(37.6846°N, 24.0673°E)
Time: 14:53:54
(UTC+00:00)

Cosmos 2221 Rocket - Pass Details

Date: 14 July 2020
Orbit: 619 x 649 km, 82.5° (Epoch: 04 August)

Event Time Altitude Azimuth Distance (km) Brightness Sun altitude
Rises 00:34:51 0° 353° (N) 2,904 7.8 -23.8°
Reaches altitude 10° 00:37:05 10° 354° (N) 1,993 6.8 -23.5°
Maximum altitude 00:41:31 85° 84° (E) 627 3.5 -23.1°
Enters shadow 00:42:00 70° 160° (SSE) 661 3.5 -23.0°
